Back to catalog

SL-12 DEB

LostHEO
NORAD 44984·DEBRIS·🇷🇺 Russia

Launched Dec 25, 2006 from Baikonur Cosmodrome

Loading…

Next Passes (next 24 hours)

TLE

StaleSource: Space-Track

Epoch: Oct 26, 2025, 16:39 UTC

1 44984U 06062U   25299.69424706  .00000050  00000-0  41489-3 0  9992
2 44984  63.9614  85.6891 5556655 335.7488   5.8592  4.23532052 92626

Track SL-12 DEB in real time with AllMySat

Download on the App Store